Hourly Data Report for October 21, 2016

All times are specified in Local Standard Time (LST). Add 1 hour to adjust for Daylight Saving Time where and when it is observed.

IQALUIT CLIMATE
NUNAVUT

63°44'50.000" N
68°32'40.000" W
33.50 m
2402592
71321
XFB

Download Data

Hourly Data (October 2016)
Hourly Data Report for October 21, 2016
Temp Definition
°C
Dew Point Temp Definition
°C
Rel Hum Definition
%
Wind Dir Definition
10's deg

Wind Spd Definition
km/h
Visibility Definition
km
Stn Press Definition
kPa
Hmdx Definition


Wind Chill Definition


Weather Definition


TIME
00:00 -0.6 -3.9 78 28 25   101.02   -7 LegendNANA
01:00 -2.5 -3.7 92 1 19   101.05   -8 LegendNANA
02:00 -3.4 -4.6 91 33 17   101.05   -9 LegendNANA
03:00 -3.5 -5.0 90 35 13   101.09   -8 LegendNANA
04:00 -3.9 -5.3 90 34 9   101.12   -8 LegendNANA
05:00 -4.4 -5.5 92 33 11   101.12   -9 LegendNANA
06:00 -4.9 -5.8 93 31 10   101.15   -9 LegendNANA
07:00 -5.1 -6.1 93 32 8   101.17   -9 LegendNANA
08:00 -6.3 -7.5 92 34 6   101.18   -9 LegendNANA
09:00 -7.3 -9.3 86 35 6   101.20   -10 LegendNANA
10:00 -5.9 -7.9 86 34 12   101.22   -11 LegendNANA
11:00 -5.6 -7.5 86 30 11   101.22   -10 LegendNANA
12:00 -6.0 -7.9 87 34 7   101.27   -9 LegendNANA
13:00 -6.2 -8.0 87 32 8   101.31   -10 LegendNANA
14:00 -5.3 -7.3 86 32 10   101.34   -10 LegendNANA
15:00 -5.4 -7.5 85 33 8   101.36   -9 LegendNANA
16:00 -5.7 -7.5 87 31 14   101.40   -11 LegendNANA
17:00 -6.3 -8.2 87 33 15   101.43   -12 LegendNANA
18:00 -6.5 -8.8 84 35 11   101.50   -11 LegendNANA
19:00 -6.6 -8.9 84 34 9   101.52   -11 LegendNANA
20:00 -7.2 -8.8 88 33 10   101.55   -12 LegendNANA
21:00 -7.2 -9.1 86 34 11   101.60   -12 LegendNANA
22:00 -7.2 -9.1 86 34 12   101.61   -13 LegendNANA
23:00 -7.2 -9.2 86 34 11   101.65   -12 LegendNANA

Notes on Data Quality.

Legend

  • E = Estimated
  • M = Missing
  • NA = Not Available
  • ‡ = Partner data that is not subject to review by the National Climate Archives
Date modified: